Welcome to Des Moines Iowa Weather. I am an independent private personal weather station on the Northwest Side of Des Moines, Iowa. Just East of Windsor Heights and just West of Glendale . This site is also mobile friendly.

There are no active watches, warnings or advisories


Visit our other weather sites:

Historical Data

Weather Station Setup



Weather Underground History page Text

Daily Summary for February 24, 2017 Units:  English    Metric   Both
« Previous Day
Next Day »
Daily Weekly Monthly Yearly Custom
  High: Low: Average:
Temperature: 38.7 °F 20.1 °F 29.1 °F
Dew Point: 38.0 °F 18.0 °F 27.8 °F
Humidity: 96 % 92 % 94 %
Wind Speed: 14.0 mph 0.0 mph 5.8 mph
Wind Gust: 21.0 mph - -
Wind:- - SSW
Pressure: 29.98 in 29.47 in -
Precipitation: 0.18 in    
Historical Graphs
 
 
Tabular Data for February 24, 2017
Time Temperature Dew Point Pressure Wind Wind Speed Wind Gust Humidity Rainfall Rate (Hourly)
00:05 38.7 °F 38.0 °F 29.47 in SE 8.0 mph 20.0 mph 96 % 0.03 in
00:20 38.4 °F 37.0 °F 29.48 in NNE 3.0 mph 19.0 mph 96 % 0.04 in
00:35 37.8 °F 37.0 °F 29.48 in SE 2.0 mph 19.0 mph 96 % 0.02 in
00:50 37.8 °F 37.0 °F 29.55 in NNE 5.0 mph 13.0 mph 96 % 0.04 in
01:05 37.5 °F 37.0 °F 29.61 in NE 2.0 mph 13.0 mph 96 % 0.07 in
01:20 36.9 °F 36.0 °F 29.62 in NE 6.0 mph 18.0 mph 96 % 0.09 in
01:35 35.4 °F 34.0 °F 29.57 in NE 10.0 mph 16.0 mph 95 % 0.10 in
01:50 34.7 °F 34.0 °F 29.53 in NE 7.0 mph 18.0 mph 96 % 0.09 in
02:05 34.5 °F 34.0 °F 29.53 in East 2.0 mph 21.0 mph 96 % 0.05 in
02:20 34.5 °F 34.0 °F 29.55 in NNE 1.0 mph 15.0 mph 96 % 0.02 in
02:36 34.5 °F 34.0 °F 29.55 in ENE 14.0 mph 18.0 mph 96 % 0.01 in
02:50 34.6 °F 34.0 °F 29.55 in NNW 2.0 mph 15.0 mph 96 % 0.00 in
03:06 34.5 °F 33.0 °F 29.53 in NE 2.0 mph 18.0 mph 95 % 0.00 in
03:21 34.5 °F 33.0 °F 29.54 in East 4.0 mph 16.0 mph 95 % 0.00 in
03:36 34.5 °F 33.0 °F 29.54 in ESE 2.0 mph 17.0 mph 95 % 0.00 in
03:51 34.5 °F 33.0 °F 29.53 in East 12.0 mph 19.0 mph 95 % 0.00 in
04:06 34.5 °F 33.0 °F 29.52 in ESE 4.0 mph 19.0 mph 94 % 0.00 in
04:21 34.4 °F 33.0 °F 29.53 in SE 7.0 mph 18.0 mph 94 % 0.00 in
04:36 34.4 °F 33.0 °F 29.53 in East 4.0 mph 13.0 mph 94 % 0.00 in
04:51 34.3 °F 33.0 °F 29.53 in NE 5.0 mph 15.0 mph 93 % 0.00 in
05:06 34.3 °F 33.0 °F 29.53 in NE 4.0 mph 18.0 mph 93 % 0.00 in
05:21 34.2 °F 32.0 °F 29.52 in ENE 6.0 mph 16.0 mph 93 % 0.00 in
05:36 34.1 °F 32.0 °F 29.53 in NNE 6.0 mph 19.0 mph 93 % 0.00 in
05:51 34.0 °F 32.0 °F 29.55 in Calm   16.0 mph 93 % 0.00 in
06:06 33.9 °F 32.0 °F 29.58 in North 1.0 mph 13.0 mph 94 % 0.00 in
06:21 33.8 °F 32.0 °F 29.59 in ENE 2.0 mph 13.0 mph 94 % 0.00 in
06:36 33.7 °F 32.0 °F 29.61 in Calm   12.0 mph 94 % 0.01 in
06:51 33.7 °F 33.0 °F 29.61 in ENE 1.0 mph 6.0 mph 95 % 0.02 in
07:06 33.6 °F 32.0 °F 29.61 in NNW 2.0 mph 8.0 mph 95 % 0.03 in
07:21 33.5 °F 32.0 °F 29.61 in NNW 3.0 mph 9.0 mph 95 % 0.03 in
07:36 32.9 °F 32.0 °F 29.62 in North 5.0 mph 10.0 mph 95 % 0.03 in
07:51 32.3 °F 31.0 °F 29.62 in WNW 4.0 mph 13.0 mph 95 % 0.02 in
08:06 32.0 °F 31.0 °F 29.62 in North 4.0 mph 13.0 mph 95 % 0.02 in
08:21 31.8 °F 31.0 °F 29.63 in NW 6.0 mph 15.0 mph 95 % 0.02 in
08:36 31.6 °F 30.0 °F 29.64 in North 3.0 mph 20.0 mph 95 % 0.01 in
08:51 31.4 °F 30.0 °F 29.64 in North 8.0 mph 15.0 mph 95 % 0.01 in
09:06 31.5 °F 30.0 °F 29.65 in NNW 8.0 mph 16.0 mph 95 % 0.00 in
09:21 31.6 °F 30.0 °F 29.65 in ENE 5.0 mph 17.0 mph 95 % 0.00 in
09:36 31.8 °F 31.0 °F 29.66 in NW 5.0 mph 16.0 mph 95 % 0.00 in
09:51 31.5 °F 30.0 °F 29.67 in North 5.0 mph 17.0 mph 95 % 0.00 in
10:06 30.9 °F 30.0 °F 29.67 in North 12.0 mph 16.0 mph 95 % 0.00 in
10:21 30.7 °F 30.0 °F 29.68 in North 5.0 mph 15.0 mph 95 % 0.00 in
10:36 30.6 °F 29.0 °F 29.69 in NNE 3.0 mph 17.0 mph 95 % 0.00 in
10:52 30.5 °F 29.0 °F 29.70 in NNE 10.0 mph 15.0 mph 94 % 0.00 in
11:07 30.5 °F 29.0 °F 29.69 in NE 5.0 mph 16.0 mph 94 % 0.00 in
11:22 30.5 °F 29.0 °F 29.70 in North 3.0 mph 17.0 mph 94 % 0.00 in
11:37 30.5 °F 29.0 °F 29.70 in North 8.0 mph 16.0 mph 93 % 0.00 in
11:52 30.2 °F 29.0 °F 29.69 in NNW 11.0 mph 16.0 mph 93 % 0.00 in
12:07 30.0 °F 29.0 °F 29.70 in NW 4.0 mph 14.0 mph 94 % 0.00 in
12:22 29.3 °F 28.0 °F 29.70 in WNW 7.0 mph 17.0 mph 94 % 0.00 in
12:37 28.8 °F 27.0 °F 29.70 in NNW 5.0 mph 14.0 mph 94 % 0.00 in
12:52 28.4 °F 27.0 °F 29.70 in NNE 14.0 mph 18.0 mph 94 % 0.00 in
13:08 27.8 °F 26.0 °F 29.70 in North 1.0 mph 19.0 mph 94 % 0.00 in
13:22 27.8 °F 26.0 °F 29.70 in NNW 5.0 mph 15.0 mph 94 % 0.00 in
13:37 27.4 °F 26.0 °F 29.71 in NNW 5.0 mph 18.0 mph 94 % 0.00 in
13:52 27.0 °F 26.0 °F 29.72 in NNE 4.0 mph 19.0 mph 94 % 0.00 in
14:07 27.0 °F 26.0 °F 29.72 in North 10.0 mph 15.0 mph 94 % 0.00 in
14:22 26.9 °F 25.0 °F 29.73 in NNW 4.0 mph 15.0 mph 93 % 0.00 in
14:37 26.9 °F 25.0 °F 29.74 in North 13.0 mph 18.0 mph 93 % 0.00 in
14:52 26.6 °F 25.0 °F 29.75 in North 12.0 mph 19.0 mph 92 % 0.00 in
15:07 26.5 °F 25.0 °F 29.75 in North 8.0 mph 18.0 mph 92 % 0.00 in
15:22 26.4 °F 24.0 °F 29.76 in WSW 4.0 mph 17.0 mph 92 % 0.00 in
15:37 26.3 °F 25.0 °F 29.77 in North 11.0 mph 13.0 mph 93 % 0.00 in
15:52 25.9 °F 24.0 °F 29.78 in North 10.0 mph 17.0 mph 93 % 0.00 in
16:07 25.5 °F 24.0 °F 29.78 in North 6.0 mph 20.0 mph 94 % 0.00 in
16:23 25.2 °F 24.0 °F 29.79 in North 6.0 mph 14.0 mph 94 % 0.00 in
16:38 25.0 °F 24.0 °F 29.80 in North 10.0 mph 15.0 mph 95 % 0.00 in
16:53 24.7 °F 24.0 °F 29.81 in WNW 12.0 mph 18.0 mph 95 % 0.00 in
17:08 24.5 °F 23.0 °F 29.82 in NNW 6.0 mph 17.0 mph 95 % 0.00 in
17:23 24.5 °F 23.0 °F 29.83 in NNE 9.0 mph 13.0 mph 95 % 0.00 in
17:38 23.9 °F 23.0 °F 29.84 in North 3.0 mph 16.0 mph 95 % 0.00 in
17:53 23.5 °F 22.0 °F 29.84 in NW 4.0 mph 12.0 mph 95 % 0.00 in
18:27 23.0 °F 22.0 °F 29.86 in WNW 8.0 mph 17.0 mph 95 % 0.00 in
18:38 23.0 °F 22.0 °F 29.87 in North 5.0 mph 17.0 mph 95 % 0.00 in
18:53 23.1 °F 22.0 °F 29.88 in NNW 8.0 mph 14.0 mph 95 % 0.00 in
19:08 23.1 °F 22.0 °F 29.88 in NW 3.0 mph 11.0 mph 95 % 0.00 in
19:23 23.0 °F 22.0 °F 29.89 in NNE 2.0 mph 12.0 mph 95 % 0.00 in
19:38 23.0 °F 22.0 °F 29.89 in NW 8.0 mph 14.0 mph 95 % 0.00 in
19:53 22.9 °F 22.0 °F 29.90 in North 12.0 mph 16.0 mph 95 % 0.00 in
20:08 22.8 °F 22.0 °F 29.90 in NNW 5.0 mph 16.0 mph 95 % 0.00 in
20:23 22.8 °F 22.0 °F 29.90 in NNE 4.0 mph 11.0 mph 95 % 0.00 in
20:38 22.8 °F 22.0 °F 29.91 in NNW 8.0 mph 13.0 mph 95 % 0.00 in
20:53 22.9 °F 22.0 °F 29.91 in NNW 9.0 mph 15.0 mph 95 % 0.00 in
21:08 22.9 °F 22.0 °F 29.91 in NW 9.0 mph 15.0 mph 95 % 0.00 in
21:23 22.9 °F 22.0 °F 29.92 in North 8.0 mph 14.0 mph 94 % 0.00 in
21:38 23.0 °F 22.0 °F 29.93 in NNW 10.0 mph 16.0 mph 94 % 0.00 in
21:53 22.9 °F 22.0 °F 29.94 in North 4.0 mph 14.0 mph 94 % 0.00 in
22:08 22.7 °F 21.0 °F 29.94 in NNW 6.0 mph 17.0 mph 94 % 0.00 in
22:23 22.3 °F 21.0 °F 29.95 in NNW 4.0 mph 17.0 mph 93 % 0.00 in
22:39 21.9 °F 20.0 °F 29.95 in NNW 5.0 mph 14.0 mph 92 % 0.00 in
22:54 21.4 °F 20.0 °F 29.96 in NNW 1.0 mph 16.0 mph 92 % 0.00 in
23:09 21.0 °F 19.0 °F 29.96 in WNW 4.0 mph 13.0 mph 92 % 0.00 in
23:24 20.6 °F 19.0 °F 29.97 in NW 9.0 mph 12.0 mph 92 % 0.00 in
23:39 20.4 °F 19.0 °F 29.98 in WNW 3.0 mph 16.0 mph 92 % 0.00 in
23:54 20.1 °F 18.0 °F 29.98 in NNW 9.0 mph 14.0 mph 92 % 0.00 in
Des Moines Weather and Climate
Compliments of Weather Underground - 3 mb

Script developed by  Jim McMurry - jmcmurry@mwt.net Adapted for the template by  Wim van der Kuil - Leuven-Template.eu

You find our weather info also at:

Weather Underground

Equipment we use:

Weather-station
Davis VP2 Plus

Weather-program
Davis Weatherlink.Com

Weather-server
iMac (Retina 4K, 21.5-inch, Late 2015)

Provider
Hostmonster.com

Davis VP2 Plus

Davis Weatherlink.Com

iMac (Retina 4K, 21.5-inch, Late 2015)

Hostmonster.com